Home > Weather > West Bromwich > Past weeks

Flag for United Kingdom Weather for the Past 2 Weeks in West Bromwich, England, United Kingdom

Now
37 °F

Passing clouds.


Feels Like: 34 °F
Forecast: N/A
Wind: 5 mph from South

Location: Birmingham / Airport

Current Time: Feb 11, 2016 at 11:38:01 PM

Latest Report: Feb 11, 2016 at 10:20 PM


Visibility: N/A

Pressure: 29.50 "Hg

Humidity: 93%

Dew point: 36 °F

Location of West BromwichLocation

Historic Weather in West Bromwich — Graph

°F

West Bromwich Temperature Yesterday

Maximum temperature yesterday: 46 °F (at 1:20 PM)
Minimum temperature yesterday: 36 °F (at 9:20 PM)
Average temperature yesterday: 41 °F

High & Low Weather Summary for the Past Weeks

 TemperatureHumidityPressure
High57 °F (Jan 31, 8:20 PM)100% (Jan 28, 10:20 PM)30.33 "Hg (Jan 28, 10:20 PM)
Low30 °F (Feb 11, 4:50 AM)53% (Feb 2, 12:20 PM)28.82 "Hg (Feb 8, 8:20 AM)
Average45 °F85%29.66 "Hg
* Reported Jan 27 9:20 PM — Feb 11 9:20 PM, West Bromwich, Weather by CustomWeather, © 2016

Note: Actual official high and low records may vary slightly from our data, if they occured in-between our weather recording intervals... More about our weather records

Advertising

West Bromwich Weather History for the Previous 24 Hours

 ConditionsComfort  
Time TempWeatherWind HumidityBarometerVisibility
9:20 PM
Thu, Feb 11
36 °FPassing clouds.5 mph93%29.53 "HgN/A
8:50 PM36 °FPartly cloudy.5 mph93%29.53 "HgN/A
8:20 PM36 °FPartly cloudy.5 mph93%29.53 "HgN/A
7:50 PM37 °FPassing clouds.5 mph87%29.53 "HgN/A
7:20 PM37 °FPassing clouds.5 mph81%29.56 "HgN/A
6:50 PM39 °FPassing clouds.5 mph75%29.56 "HgN/A
6:20 PM39 °FPassing clouds.3 mph75%29.56 "HgN/A
5:50 PM39 °FPassing clouds.3 mph75%29.56 "HgN/A
5:20 PM41 °FPartly cloudy.2 mph70%29.56 "HgN/A
4:50 PM41 °FPassing clouds.5 mph70%29.56 "HgN/A
4:20 PM43 °FSunny.5 mph66%29.56 "Hg10 mi
3:50 PM45 °FPassing clouds.7 mph61%29.56 "HgN/A
3:20 PM45 °FPassing clouds.6 mph61%29.59 "HgN/A
2:50 PM45 °FPassing clouds.7 mph61%29.59 "HgN/A
2:20 PM45 °FPassing clouds.8 mph66%29.59 "HgN/A
1:50 PM45 °FPassing clouds.7 mph66%29.59 "HgN/A
1:20 PM45 °FPassing clouds.7 mph66%29.59 "HgN/A
12:50 PM45 °FSunny.7 mph66%29.62 "Hg10 mi
12:20 PM45 °FPassing clouds.6 mph66%29.62 "HgN/A
11:50 AM43 °FPassing clouds.7 mph76%29.62 "HgN/A
11:20 AM41 °FPassing clouds.6 mph81%29.62 "HgN/A
10:50 AM41 °FScattered clouds.5 mph81%29.62 "HgN/A
10:20 AM39 °FPassing clouds.5 mph87%29.62 "HgN/A
9:50 AM37 °FPassing clouds.6 mph93%29.62 "HgN/A
9:20 AM36 °FPassing clouds.5 mph100%29.62 "HgN/A
8:50 AM32 °FSunny.5 mph100%29.62 "Hg10 mi
8:20 AM32 °FPassing clouds.3 mph100%29.62 "HgN/A
7:50 AM30 °FSunny.3 mph100%29.62 "Hg10 mi
7:20 AM30 °FClear.2 mph100%29.62 "Hg10 mi
6:50 AM30 °FClear.2 mph100%29.62 "Hg10 mi
6:20 AM30 °FClear.5 mph100%29.62 "Hg10 mi
5:20 AM30 °FClear.3 mph100%29.62 "Hg10 mi
4:50 AM30 °FClear.3 mph100%29.62 "Hg10 mi
4:20 AM34 °FClear.No wind93%29.62 "Hg10 mi
3:50 AM34 °FClear.6 mph100%29.62 "Hg10 mi
3:20 AM34 °FClear.6 mph100%29.62 "Hg10 mi
2:20 AM36 °FClear.3 mph87%29.62 "Hg10 mi
1:50 AM36 °FClear.6 mph87%29.62 "Hg10 mi
1:20 AM36 °FChilly.6 mph87%29.62 "HgN/A
12:50 AM37 °FClear.6 mph81%29.62 "Hg10 mi
12:20 AM36 °FClear.6 mph87%29.62 "Hg10 mi
11:50 PM
Wed, Feb 10
36 °FClear.7 mph93%29.62 "Hg10 mi
11:20 PM37 °FClear.7 mph87%29.62 "Hg10 mi
Weather by CustomWeather, © 2016

See weather overviewHow to use our weather pages